DW6888 Weather Reports


time (UTC)temp
F
wind
direction
speed
knots
gust
knots
rain 1hr
in
rain 24hr
in
rain mn
in
humidity
%
barometer
mb
20260505053304 62 209 0.0 0.9 0.00 0.00 0.00 84 1013.5
20260505052804 62 213 0.0 0.0 0.00 0.00 0.00 84 1013.2
20260505052304 61 213 0.0 0.0 0.00 0.00 0.00 83 1013.2
20260505051805 62 213 0.0 0.0 0.00 0.00 0.00 83 1013.2
20260505051304 62 213 0.0 0.0 0.00 0.00 0.00 82 1013.2
20260505050841 62 213 0.0 0.0 0.00 0.00 0.00 82 1013.3
20260505050304 62 213 0.0 0.0 0.00 0.00 0.00 80 1013.5
20260505040804 64 204 0.0 0.0 0.00 0.00 0.00 78 1013.9
20260505035304 64 198 0.0 0.0 0.00 0.00 0.00 77 1013.9
20260505034804 64 198 0.0 0.0 0.00 0.00 0.00 77 1013.9
20260505034304 65 198 0.0 0.0 0.00 0.00 0.00 77 1013.9
20260505033804 65 174 0.0 0.0 0.00 0.00 0.00 77 1013.8
20260505033304 65 127 0.0 0.0 0.00 0.00 0.00 76 1013.8
20260505032804 65 127 0.0 0.0 0.00 0.00 0.00 75 1013.7
20260505031804 66 212 0.0 0.0 0.00 0.00 0.00 74 1013.9
20260505031305 66 204 0.0 0.0 0.00 0.00 0.00 74 1014.0
20260505030804 66 212 0.0 0.0 0.00 0.00 0.00 73 1013.9
20260505030303 66 212 0.0 0.0 0.00 0.00 0.00 72 1013.9
20260505025305 67 127 0.0 0.9 0.00 0.00 0.00 72 1013.9
20260505024804 67 173 0.0 0.9 0.00 0.00 0.00 72 1014.0
20260505024305 67 120 0.0 0.0 0.00 0.00 0.00 71 1013.8
20260505023804 67 125 0.0 0.0 0.00 0.00 0.00 70 1013.8
20260505023304 67 188 0.0 0.0 0.00 0.00 0.00 70 1013.8
20260505022804 67 125 0.0 0.0 0.00 0.00 0.00 69 1013.9
20260505021804 67 191 0.0 1.7 0.00 0.00 0.00 69 1013.9
20260505020804 68 124 0.0 1.7 0.00 0.00 0.00 67 1013.8
20260505020304 68 138 0.0 1.7 0.00 0.00 0.00 67 1013.8
20260505015305 68 127 0.0 1.7 0.00 0.00 0.00 66 1013.7
20260505014805 68 121 0.9 2.6 0.00 0.00 0.00 65 1013.6
20260505014304 68 163 0.9 5.2 0.00 0.00 0.00 65 1013.5
20260505013304 69 179 0.0 0.0 0.00 0.00 0.00 64 1013.7
20260505012804 69 195 0.0 0.0 0.00 0.00 0.00 63 1013.6
20260505012304 69 180 0.0 2.6 0.00 0.00 0.00 63 1013.5
20260505011804 69 130 0.9 4.3 0.00 0.00 0.00 63 1013.5
20260505011304 69 115 0.0 1.7 0.00 0.00 0.00 63 1013.4
20260505010803 69 133 0.9 2.6 0.00 0.00 0.00 62 1013.4
20260505010304 70 131 0.9 1.7 0.00 0.00 0.00 61 1013.6
20260505005304 70 132 0.9 2.6 0.00 0.00 0.00 60 1013.8
20260505004804 70 138 0.9 1.7 0.00 0.00 0.00 59 1013.8
20260505004303 71 179 0.0 2.6 0.00 0.00 0.00 60 1013.8
20260505003303 71 136 0.9 2.6 0.00 0.00 0.00 57 1013.9
20260505002304 72 180 0.0 2.6 0.00 0.00 0.00 56 1013.9
20260505001804 72 140 0.9 5.2 0.00 0.00 0.00 56 1013.8
20260505001304 72 144 1.7 6.1 0.00 0.00 0.00 55 1013.7
20260505000804 72 130 0.9 6.1 0.00 0.00 0.00 55 1013.7
20260505000304 72 143 2.6 6.1 0.00 0.00 0.00 54 1013.7
20260504235804 73 143 1.7 4.3 0.00 0.00 0.00 54 1013.7
20260504235304 73 162 1.7 2.6 0.00 0.00 0.00 53 1013.9
20260504234304 73 147 1.7 5.2 0.00 0.00 0.00 51 1014.0
20260504233804 74 189 0.0 2.6 0.00 0.00 0.00 51 1014.1
20260504233304 74 169 0.0 2.6 0.00 0.00 0.00 52 1014.1
20260504232804 74 153 0.0 2.6 0.00 0.00 0.00 50 1014.0
20260504232304 74 132 1.7 4.3 0.00 0.00 0.00 48 1014.0
20260504231804 75 154 0.9 2.6 0.00 0.00 0.00 48 1014.1
20260504231304 74 189 0.9 2.6 0.00 0.00 0.00 48 1014.2
20260504230804 75 142 1.7 5.2 0.00 0.00 0.00 47 1014.2
20260504230304 75 222 0.9 2.6 0.00 0.00 0.00 47 1014.3
20260504225804 75 206 0.9 2.6 0.00 0.00 0.00 49 1014.3
20260504225304 74 187 1.7 5.2 0.00 0.00 0.00 47 1014.4
20260504224804 75 143 0.9 7.8 0.00 0.00 0.00 46 1014.4